{"data":{"norad_id":62091,"epoch":"2026-09-21T09:54:08.700480Z","epoch_age_seconds":102274,"freshness":"FRESH","line1":"1 62091U 24220D   26264.41260070  .00109229  00000+0  84250-3 0  9992","line2":"2 62091  42.9977 303.4690 0000305 209.7027 150.3824 15.70871217105736","mean_motion":15.70871217,"eccentricity":3.05e-5,"inclination_deg":42.9977,"raan_deg":303.469,"arg_perigee_deg":209.7027,"mean_anomaly_deg":150.3824,"bstar":0.0008425,"rev_number":10573,"period_min":91.668876761907,"perigee_km":356.2004354612,"apogee_km":356.61124257438,"semimajor_km":6734.5428390178,"source":"CELESTRAK","updated_at":"2026-09-22T09:00:49.496558Z"}}